星链-1553 (STARLINK-1553 )

导读

STARLINK-1553是美国SpaceX星链互联网卫星星座的一员,于2020年9月3日发射入轨,属于星链早期部署批次卫星。星链计划旨在构建全球卫星互联网覆盖,该卫星承担低轨互联网接入服务,与其他星链卫星组网,为全球偏远地区等提供网络连接,推动卫星互联网的商业化应用落地。

基本信息
目录编号:
46348
目录名称:
STARLINK-1553
国际标识:
2020-062Z
轨道中心:
EARTH
卫星名称:
星链-1553
卫星全名:
星链-1553 (STARLINK-1553 )
卫星状态:
在轨 (已飞行2202 天)
发射日期:
2020-09-03 UTC
国别 :
美国 (US)
星等 :
--
该卫星已列入 空间交会检测服务 Space Conjunction Data Service (SCDS) ,当前飞行风险评估等级: 无高风险
轨道信息
数据来源 国际轨道数据 AOE轨道数据
星历时间 2026-09-13T17:17:36+0800
16小时前
查看轨道信息
2026-09-12T23:00:00+0800
1天前
查看轨道信息
半长轴 6805.484km 6805.607km
偏心率 0.0003751 0.0003668
轨道倾角 53.033° 53.033°
近地点辐角 72.934° 66.595°
升交点赤经 137.364° 141.004°
平近点角 287.208° 7.874°
近地点 424.794km 424.973km
远地点 429.9km 429.967km
周期 93.121分钟 93.124分钟
每日圈数 15.463732 15.463313
详细信息
固有亮度:
5
最大亮度:
2.5
卫星平台:
Starlink V1.0
覆盖范围:
全球
运营商:
太空探索技术公司
运营商所在国:
美国
制造商(研发单位):
太空探索技术公司
制造商所在国:
美国
使用方式:
暂无
卫星简介
星链(Starlink)计划是由太空探索技术公司(SpaceX)提出的一个巨型低轨卫星互联网星座项目,计划在2019年至2024年间在太空搭建由约1.2万颗卫星组成的“星链”网络,其中1584颗将部署在地球上空550千米处的近地轨道,并从2020年开始工作。该卫星仍在工作。
2D轨道图
3D轨道图
轨道高度分析图
轨道倾角分析图
轨道综合分析图
查看轨道综合分析图
与全量物体交会距离演化趋势
与全量物体交会风险概率演化趋势